owner,sensor,date,latitude,longitude,vertical_datum,mass_concentration_of_oxygen_in_sea_water,qcFlag 
NERRS,ioos:station:NOAA.NERRS:rkblhwq:1,2017-05-01T00:45:00Z,26.0257,-81.7332,1.2,5.9,1111122 
NERRS,ioos:station:NOAA.NERRS:rkblhwq:1,2017-05-01T01:45:00Z,26.0257,-81.7332,1.04,5.4,1111122 
NERRS,ioos:station:NOAA.NERRS:rkblhwq:1,2017-05-01T02:45:00Z,26.0257,-81.7332,0.89,5.2,1111122 
NERRS,ioos:station:NOAA.NERRS:rkblhwq:1,2017-05-01T03:45:00Z,26.0257,-81.7332,0.75,5.1,1111122 
NERRS,ioos:station:NOAA.NERRS:rkblhwq:1,2017-05-01T04:45:00Z,26.0257,-81.7332,0.64,4.8,1111122 
NERRS,ioos:station:NOAA.NERRS:rkblhwq:1,2017-05-01T05:45:00Z,26.0257,-81.7332,0.67,5.1,1111122 
NERRS,ioos:station:NOAA.NERRS:rkblhwq:1,2017-05-01T06:45:00Z,26.0257,-81.7332,0.77,4.8,1111122 
NERRS,ioos:station:NOAA.NERRS:rkblhwq:1,2017-05-01T07:45:00Z,26.0257,-81.7332,0.91,4.8,1111122 
NERRS,ioos:station:NOAA.NERRS:rkblhwq:1,2017-05-01T08:45:00Z,26.0257,-81.7332,1.09,4.8,1111122 
NERRS,ioos:station:NOAA.NERRS:rkblhwq:1,2017-05-01T09:45:00Z,26.0257,-81.7332,1.25,4.6,1111122 
NERRS,ioos:station:NOAA.NERRS:rkblhwq:1,2017-05-01T10:45:00Z,26.0257,-81.7332,1.35,3.9,1111122 
NERRS,ioos:station:NOAA.NERRS:rkblhwq:1,2017-05-01T11:45:00Z,26.0257,-81.7332,1.38,2.6,1111122 
NERRS,ioos:station:NOAA.NERRS:rkblhwq:1,2017-05-01T12:45:00Z,26.0257,-81.7332,1.32,4.5,1111122 
NERRS,ioos:station:NOAA.NERRS:rkblhwq:1,2017-05-01T13:45:00Z,26.0257,-81.7332,1.24,4.5,1111122 
NERRS,ioos:station:NOAA.NERRS:rkblhwq:1,2017-05-01T14:45:00Z,26.0257,-81.7332,1.17,4.8,1111122 
NERRS,ioos:station:NOAA.NERRS:rkblhwq:1,2017-05-01T15:45:00Z,26.0257,-81.7332,1.11,5.0,1111122 
NERRS,ioos:station:NOAA.NERRS:rkblhwq:1,2017-05-01T16:45:00Z,26.0257,-81.7332,1.11,5.0,1111122 
NERRS,ioos:station:NOAA.NERRS:rkblhwq:1,2017-05-01T17:45:00Z,26.0257,-81.7332,1.18,6.1,1111122 
NERRS,ioos:station:NOAA.NERRS:rkblhwq:1,2017-05-01T18:45:00Z,26.0257,-81.7332,1.27,6.4,1111122 
NERRS,ioos:station:NOAA.NERRS:rkblhwq:1,2017-05-01T19:45:00Z,26.0257,-81.7332,1.37,6.4,1111122 
NERRS,ioos:station:NOAA.NERRS:rkblhwq:1,2017-05-01T20:45:00Z,26.0257,-81.7332,1.45,6.4,1111122 
NERRS,ioos:station:NOAA.NERRS:rkblhwq:1,2017-05-01T21:45:00Z,26.0257,-81.7332,1.47,5.6,1111122 
NERRS,ioos:station:NOAA.NERRS:rkblhwq:1,2017-05-01T22:45:00Z,26.0257,-81.7332,1.43,6.2,1111122 
NERRS,ioos:station:NOAA.NERRS:rkblhwq:1,2017-05-01T23:45:00Z,26.0257,-81.7332,1.34,6.1,1111122 
NERRS,ioos:station:NOAA.NERRS:rkblhwq:1,2017-05-02T00:45:00Z,26.0257,-81.7332,1.22,6.0,1111122 
NERRS,ioos:station:NOAA.NERRS:rkblhwq:1,2017-05-02T01:45:00Z,26.0257,-81.7332,1.08,5.9,1111122 
NERRS,ioos:station:NOAA.NERRS:rkblhwq:1,2017-05-02T02:45:00Z,26.0257,-81.7332,0.93,5.6,1111122 
NERRS,ioos:station:NOAA.NERRS:rkblhwq:1,2017-05-02T03:45:00Z,26.0257,-81.7332,0.8,5.2,1111122 
NERRS,ioos:station:NOAA.NERRS:rkblhwq:1,2017-05-02T04:45:00Z,26.0257,-81.7332,0.72,5.1,1111122 
NERRS,ioos:station:NOAA.NERRS:rkblhwq:1,2017-05-02T05:45:00Z,26.0257,-81.7332,0.68,3.8,1111122 
NERRS,ioos:station:NOAA.NERRS:rkblhwq:1,2017-05-02T06:45:00Z,26.0257,-81.7332,0.74,4.8,1111122 
NERRS,ioos:station:NOAA.NERRS:rkblhwq:1,2017-05-02T07:45:00Z,26.0257,-81.7332,0.84,5.0,1111122 
NERRS,ioos:station:NOAA.NERRS:rkblhwq:1,2017-05-02T08:45:00Z,26.0257,-81.7332,0.97,5.0,1111122 
NERRS,ioos:station:NOAA.NERRS:rkblhwq:1,2017-05-02T09:45:00Z,26.0257,-81.7332,1.13,4.8,1111122 
NERRS,ioos:station:NOAA.NERRS:rkblhwq:1,2017-05-02T10:45:00Z,26.0257,-81.7332,1.28,4.5,1111122 
NERRS,ioos:station:NOAA.NERRS:rkblhwq:1,2017-05-02T11:45:00Z,26.0257,-81.7332,1.39,4.5,1111122 
NERRS,ioos:station:NOAA.NERRS:rkblhwq:1,2017-05-02T12:45:00Z,26.0257,-81.7332,4.47,4.6,1111122 
NERRS,ioos:station:NOAA.NERRS:rkblhwq:1,2017-05-02T13:45:00Z,26.0257,-81.7332,4.22,4.8,1111122 
NERRS,ioos:station:NOAA.NERRS:rkblhwq:1,2017-05-02T14:45:00Z,26.0257,-81.7332,4.02,4.8,1111122 
NERRS,ioos:station:NOAA.NERRS:rkblhwq:1,2017-05-02T15:45:00Z,26.0257,-81.7332,3.79,5.1,1111122 
NERRS,ioos:station:NOAA.NERRS:rkblhwq:1,2017-05-02T16:45:00Z,26.0257,-81.7332,3.59,5.5,1111122 
NERRS,ioos:station:NOAA.NERRS:rkblhwq:1,2017-05-02T17:45:00Z,26.0257,-81.7332,3.56,5.7,1111122 
NERRS,ioos:station:NOAA.NERRS:rkblhwq:1,2017-05-02T18:45:00Z,26.0257,-81.7332,3.68,6.2,1111122 
NERRS,ioos:station:NOAA.NERRS:rkblhwq:1,2017-05-02T19:45:00Z,26.0257,-81.7332,3.91,6.6,1111122 
NERRS,ioos:station:NOAA.NERRS:rkblhwq:1,2017-05-02T20:45:00Z,26.0257,-81.7332,4.16,6.8,1111122 
NERRS,ioos:station:NOAA.NERRS:rkblhwq:1,2017-05-02T21:45:00Z,26.0257,-81.7332,4.38,6.7,1111122 
NERRS,ioos:station:NOAA.NERRS:rkblhwq:1,2017-05-02T22:45:00Z,26.0257,-81.7332,4.54,5.1,1111122 
NERRS,ioos:station:NOAA.NERRS:rkblhwq:1,2017-05-02T23:45:00Z,26.0257,-81.7332,4.55,4.4,1111122 
NERRS,ioos:station:NOAA.NERRS:rkblhwq:1,2017-05-03T00:45:00Z,26.0257,-81.7332,4.37,6.4,1111122 
NERRS,ioos:station:NOAA.NERRS:rkblhwq:1,2017-05-03T01:45:00Z,26.0257,-81.7332,4.06,6.4,1111122 
NERRS,ioos:station:NOAA.NERRS:rkblhwq:1,2017-05-03T02:45:00Z,26.0257,-81.7332,3.68,5.8,1111122 
NERRS,ioos:station:NOAA.NERRS:rkblhwq:1,2017-05-03T03:45:00Z,26.0257,-81.7332,3.25,5.6,1111122 
NERRS,ioos:station:NOAA.NERRS:rkblhwq:1,2017-05-03T04:45:00Z,26.0257,-81.7332,2.82,5.3,1111122 
NERRS,ioos:station:NOAA.NERRS:rkblhwq:1,2017-05-03T05:45:00Z,26.0257,-81.7332,2.42,5.0,1111122 
NERRS,ioos:station:NOAA.NERRS:rkblhwq:1,2017-05-03T06:45:00Z,26.0257,-81.7332,2.13,4.7,1111122 
NERRS,ioos:station:NOAA.NERRS:rkblhwq:1,2017-05-03T07:45:00Z,26.0257,-81.7332,2.2,4.8,1111122 
NERRS,ioos:station:NOAA.NERRS:rkblhwq:1,2017-05-03T08:45:00Z,26.0257,-81.7332,2.55,4.5,1111122 
NERRS,ioos:station:NOAA.NERRS:rkblhwq:1,2017-05-03T09:45:00Z,26.0257,-81.7332,2.95,4.4,1111122 
NERRS,ioos:station:NOAA.NERRS:rkblhwq:1,2017-05-03T10:45:00Z,26.0257,-81.7332,3.37,4.8,1111122 
NERRS,ioos:station:NOAA.NERRS:rkblhwq:1,2017-05-03T11:45:00Z,26.0257,-81.7332,3.83,4.3,1111122 
NERRS,ioos:station:NOAA.NERRS:rkblhwq:1,2017-05-03T12:45:00Z,26.0257,-81.7332,4.19,4.4,1111122 
NERRS,ioos:station:NOAA.NERRS:rkblhwq:1,2017-05-03T13:45:00Z,26.0257,-81.7332,4.37,3.5,1111122 
NERRS,ioos:station:NOAA.NERRS:rkblhwq:1,2017-05-03T14:45:00Z,26.0257,-81.7332,4.21,4.8,1111122 
NERRS,ioos:station:NOAA.NERRS:rkblhwq:1,2017-05-03T15:45:00Z,26.0257,-81.7332,3.91,5.0,1111122 
NERRS,ioos:station:NOAA.NERRS:rkblhwq:1,2017-05-03T16:45:00Z,26.0257,-81.7332,3.63,5.2,1111122 
NERRS,ioos:station:NOAA.NERRS:rkblhwq:1,2017-05-03T17:45:00Z,26.0257,-81.7332,3.34,5.6,1111122 
NERRS,ioos:station:NOAA.NERRS:rkblhwq:1,2017-05-03T18:45:00Z,26.0257,-81.7332,3.13,5.7,1111122 
NERRS,ioos:station:NOAA.NERRS:rkblhwq:1,2017-05-03T19:45:00Z,26.0257,-81.7332,3.12,5.9,1111122 
NERRS,ioos:station:NOAA.NERRS:rkblhwq:1,2017-05-03T20:45:00Z,26.0257,-81.7332,3.38,6.4,1111122 
NERRS,ioos:station:NOAA.NERRS:rkblhwq:1,2017-05-03T21:45:00Z,26.0257,-81.7332,3.69,6.5,1111122 
NERRS,ioos:station:NOAA.NERRS:rkblhwq:1,2017-05-04T00:45:00Z,26.0257,-81.7332,4.46,4.3,1111122 
NERRS,ioos:station:NOAA.NERRS:rkblhwq:1,2017-05-04T01:45:00Z,26.0257,-81.7332,4.43,5.4,1111122 
NERRS,ioos:station:NOAA.NERRS:rkblhwq:1,2017-05-04T02:45:00Z,26.0257,-81.7332,4.22,5.7,1111122 
NERRS,ioos:station:NOAA.NERRS:rkblhwq:1,2017-05-04T03:45:00Z,26.0257,-81.7332,3.92,5.6,1111122 
NERRS,ioos:station:NOAA.NERRS:rkblhwq:1,2017-05-04T04:45:00Z,26.0257,-81.7332,3.48,5.3,1111122 
NERRS,ioos:station:NOAA.NERRS:rkblhwq:1,2017-05-04T05:45:00Z,26.0257,-81.7332,3.02,5.0,1111122 
NERRS,ioos:station:NOAA.NERRS:rkblhwq:1,2017-05-04T06:45:00Z,26.0257,-81.7332,2.62,4.9,1111122 
NERRS,ioos:station:NOAA.NERRS:rkblhwq:1,2017-05-04T07:45:00Z,26.0257,-81.7332,2.33,4.5,1111122 
NERRS,ioos:station:NOAA.NERRS:rkblhwq:1,2017-05-04T08:45:00Z,26.0257,-81.7332,2.42,4.8,1111122 
NERRS,ioos:station:NOAA.NERRS:rkblhwq:1,2017-05-04T09:45:00Z,26.0257,-81.7332,2.71,4.5,1111122 
NERRS,ioos:station:NOAA.NERRS:rkblhwq:1,2017-05-04T10:45:00Z,26.0257,-81.7332,3.09,4.3,1111122 
NERRS,ioos:station:NOAA.NERRS:rkblhwq:1,2017-05-04T11:45:00Z,26.0257,-81.7332,3.59,4.6,1111122 
NERRS,ioos:station:NOAA.NERRS:rkblhwq:1,2017-05-04T12:45:00Z,26.0257,-81.7332,4.09,4.5,1111122 
NERRS,ioos:station:NOAA.NERRS:rkblhwq:1,2017-05-04T13:45:00Z,26.0257,-81.7332,4.44,4.6,1111122 
NERRS,ioos:station:NOAA.NERRS:rkblhwq:1,2017-05-04T14:45:00Z,26.0257,-81.7332,4.67,4.5,1111122 
NERRS,ioos:station:NOAA.NERRS:rkblhwq:1,2017-05-04T15:45:00Z,26.0257,-81.7332,4.72,4.9,1111122 
NERRS,ioos:station:NOAA.NERRS:rkblhwq:1,2017-05-04T16:45:00Z,26.0257,-81.7332,4.41,5.4,1111122 
NERRS,ioos:station:NOAA.NERRS:rkblhwq:1,2017-05-04T17:45:00Z,26.0257,-81.7332,4.0,5.7,1111122 
NERRS,ioos:station:NOAA.NERRS:rkblhwq:1,2017-05-04T18:45:00Z,26.0257,-81.7332,3.61,5.9,1111122 
NERRS,ioos:station:NOAA.NERRS:rkblhwq:1,2017-05-04T19:45:00Z,26.0257,-81.7332,3.28,6.1,1111122 
NERRS,ioos:station:NOAA.NERRS:rkblhwq:1,2017-05-04T20:45:00Z,26.0257,-81.7332,3.12,5.7,1111122 
NERRS,ioos:station:NOAA.NERRS:rkblhwq:1,2017-05-04T21:45:00Z,26.0257,-81.7332,3.27,6.2,1111122 
NERRS,ioos:station:NOAA.NERRS:rkblhwq:1,2017-05-04T22:45:00Z,26.0257,-81.7332,3.58,6.1,1111122 
NERRS,ioos:station:NOAA.NERRS:rkblhwq:1,2017-05-04T23:45:00Z,26.0257,-81.7332,3.91,6.0,1111122 
NERRS,ioos:station:NOAA.NERRS:rkblhwq:1,2017-05-05T00:45:00Z,26.0257,-81.7332,4.16,5.5,1111122 
NERRS,ioos:station:NOAA.NERRS:rkblhwq:1,2017-05-05T01:45:00Z,26.0257,-81.7332,4.28,4.3,1111122 
NERRS,ioos:station:NOAA.NERRS:rkblhwq:1,2017-05-05T02:45:00Z,26.0257,-81.7332,4.17,5.3,1111122 
NERRS,ioos:station:NOAA.NERRS:rkblhwq:1,2017-05-05T03:45:00Z,26.0257,-81.7332,3.9,5.4,1111122 
NERRS,ioos:station:NOAA.NERRS:rkblhwq:1,2017-05-05T04:45:00Z,26.0257,-81.7332,3.58,5.0,1111122 
NERRS,ioos:station:NOAA.NERRS:rkblhwq:1,2017-05-05T05:45:00Z,26.0257,-81.7332,3.26,4.9,1111122 
NERRS,ioos:station:NOAA.NERRS:rkblhwq:1,2017-05-05T06:45:00Z,26.0257,-81.7332,3.04,4.7,1111122 
NERRS,ioos:station:NOAA.NERRS:rkblhwq:1,2017-05-05T07:45:00Z,26.0257,-81.7332,2.83,4.7,1111122 
NERRS,ioos:station:NOAA.NERRS:rkblhwq:1,2017-05-05T08:45:00Z,26.0257,-81.7332,2.75,4.8,1111122 
NERRS,ioos:station:NOAA.NERRS:rkblhwq:1,2017-05-05T09:45:00Z,26.0257,-81.7332,2.93,4.7,1111122 
NERRS,ioos:station:NOAA.NERRS:rkblhwq:1,2017-05-05T10:45:00Z,26.0257,-81.7332,3.32,4.8,1111122 
NERRS,ioos:station:NOAA.NERRS:rkblhwq:1,2017-05-05T11:45:00Z,26.0257,-81.7332,3.81,4.9,1111122 
NERRS,ioos:station:NOAA.NERRS:rkblhwq:1,2017-05-05T12:45:00Z,26.0257,-81.7332,4.22,4.8,1111122 
NERRS,ioos:station:NOAA.NERRS:rkblhwq:1,2017-05-05T13:45:00Z,26.0257,-81.7332,4.56,5.0,1111122 
NERRS,ioos:station:NOAA.NERRS:rkblhwq:1,2017-05-05T15:45:00Z,26.0257,-81.7332,4.79,4.2,1111122 
NERRS,ioos:station:NOAA.NERRS:rkblhwq:1,2017-05-05T16:45:00Z,26.0257,-81.7332,4.48,5.2,1111122 
NERRS,ioos:station:NOAA.NERRS:rkblhwq:1,2017-05-05T17:45:00Z,26.0257,-81.7332,4.06,5.5,1111122 
NERRS,ioos:station:NOAA.NERRS:rkblhwq:1,2017-05-05T18:45:00Z,26.0257,-81.7332,3.63,5.7,1111122 
NERRS,ioos:station:NOAA.NERRS:rkblhwq:1,2017-05-05T20:45:00Z,26.0257,-81.7332,2.88,6.1,1111122 
NERRS,ioos:station:NOAA.NERRS:rkblhwq:1,2017-05-05T21:45:00Z,26.0257,-81.7332,2.7,5.7,1111122 
NERRS,ioos:station:NOAA.NERRS:rkblhwq:1,2017-05-05T22:45:00Z,26.0257,-81.7332,2.88,6.2,1111122 
NERRS,ioos:station:NOAA.NERRS:rkblhwq:1,2017-05-05T23:45:00Z,26.0257,-81.7332,3.21,6.0,1111122 
NERRS,ioos:station:NOAA.NERRS:rkblhwq:1,2017-05-06T00:45:00Z,26.0257,-81.7332,3.53,6.0,1111122 
NERRS,ioos:station:NOAA.NERRS:rkblhwq:1,2017-05-06T01:45:00Z,26.0257,-81.7332,3.92,5.5,1111122 
NERRS,ioos:station:NOAA.NERRS:rkblhwq:1,2017-05-06T03:45:00Z,26.0257,-81.7332,4.45,5.0,1111122 
NERRS,ioos:station:NOAA.NERRS:rkblhwq:1,2017-05-06T04:45:00Z,26.0257,-81.7332,4.45,5.1,1111122 
NERRS,ioos:station:NOAA.NERRS:rkblhwq:1,2017-05-06T05:45:00Z,26.0257,-81.7332,4.26,5.3,1111122 
NERRS,ioos:station:NOAA.NERRS:rkblhwq:1,2017-05-06T06:45:00Z,26.0257,-81.7332,3.92,5.4,1111122 
NERRS,ioos:station:NOAA.NERRS:rkblhwq:1,2017-05-06T07:45:00Z,26.0257,-81.7332,3.48,5.0,1111122 
NERRS,ioos:station:NOAA.NERRS:rkblhwq:1,2017-05-06T08:45:00Z,26.0257,-81.7332,3.07,5.1,1111122 
NERRS,ioos:station:NOAA.NERRS:rkblhwq:1,2017-05-06T10:45:00Z,26.0257,-81.7332,2.54,4.7,1111122 
NERRS,ioos:station:NOAA.NERRS:rkblhwq:1,2017-05-06T12:45:00Z,26.0257,-81.7332,3.03,5.0,1111122 
NERRS,ioos:station:NOAA.NERRS:rkblhwq:1,2017-05-06T13:45:00Z,26.0257,-81.7332,3.5,5.4,1111122 
NERRS,ioos:station:NOAA.NERRS:rkblhwq:1,2017-05-06T14:45:00Z,26.0257,-81.7332,3.93,5.7,1111122 
NERRS,ioos:station:NOAA.NERRS:rkblhwq:1,2017-05-06T15:45:00Z,26.0257,-81.7332,4.2,3.5,1111122 
NERRS,ioos:station:NOAA.NERRS:rkblhwq:1,2017-05-06T16:45:00Z,26.0257,-81.7332,4.02,6.3,1111122 
NERRS,ioos:station:NOAA.NERRS:rkblhwq:1,2017-05-06T17:45:00Z,26.0257,-81.7332,3.71,6.7,1111122 
NERRS,ioos:station:NOAA.NERRS:rkblhwq:1,2017-05-06T19:45:00Z,26.0257,-81.7332,2.97,7.3,1111122 
NERRS,ioos:station:NOAA.NERRS:rkblhwq:1,2017-05-06T20:45:00Z,26.0257,-81.7332,2.66,7.3,1111122 
NERRS,ioos:station:NOAA.NERRS:rkblhwq:1,2017-05-06T21:45:00Z,26.0257,-81.7332,2.43,7.3,1111122 
NERRS,ioos:station:NOAA.NERRS:rkblhwq:1,2017-05-06T22:45:00Z,26.0257,-81.7332,2.38,6.6,1111122 
NERRS,ioos:station:NOAA.NERRS:rkblhwq:1,2017-05-06T23:45:00Z,26.0257,-81.7332,2.62,6.9,1111122 
NERRS,ioos:station:NOAA.NERRS:rkblhwq:1,2017-05-07T01:45:00Z,26.0257,-81.7332,3.43,6.5,1111122 
NERRS,ioos:station:NOAA.NERRS:rkblhwq:1,2017-05-07T02:45:00Z,26.0257,-81.7332,3.87,6.2,1111122 
NERRS,ioos:station:NOAA.NERRS:rkblhwq:1,2017-05-07T03:45:00Z,26.0257,-81.7332,4.2,5.8,1111122 
NERRS,ioos:station:NOAA.NERRS:rkblhwq:1,2017-05-07T05:45:00Z,26.0257,-81.7332,4.12,5.8,1111122 
NERRS,ioos:station:NOAA.NERRS:rkblhwq:1,2017-05-07T06:45:00Z,26.0257,-81.7332,3.78,5.8,1111122 
NERRS,ioos:station:NOAA.NERRS:rkblhwq:1,2017-05-07T07:45:00Z,26.0257,-81.7332,3.4,5.5,1111122 
NERRS,ioos:station:NOAA.NERRS:rkblhwq:1,2017-05-07T09:45:00Z,26.0257,-81.7332,2.75,5.1,1111122 
NERRS,ioos:station:NOAA.NERRS:rkblhwq:1,2017-05-07T11:45:00Z,26.0257,-81.7332,2.82,4.9,1111122 
NERRS,ioos:station:NOAA.NERRS:rkblhwq:1,2017-05-07T12:45:00Z,26.0257,-81.7332,3.2,5.2,1111122 
NERRS,ioos:station:NOAA.NERRS:rkblhwq:1,2017-05-07T13:45:00Z,26.0257,-81.7332,3.66,5.3,1111122 
NERRS,ioos:station:NOAA.NERRS:rkblhwq:1,2017-05-07T14:45:00Z,26.0257,-81.7332,4.1,5.7,1111122 
NERRS,ioos:station:NOAA.NERRS:rkblhwq:1,2017-05-07T16:45:00Z,26.0257,-81.7332,4.47,5.6,1111122 
NERRS,ioos:station:NOAA.NERRS:rkblhwq:1,2017-05-07T17:45:00Z,26.0257,-81.7332,4.17,6.5,1111122 
NERRS,ioos:station:NOAA.NERRS:rkblhwq:1,2017-05-07T18:45:00Z,26.0257,-81.7332,3.72,6.7,1111122 
NERRS,ioos:station:NOAA.NERRS:rkblhwq:1,2017-05-07T20:45:00Z,26.0257,-81.7332,2.81,6.9,1111122 
NERRS,ioos:station:NOAA.NERRS:rkblhwq:1,2017-05-07T22:45:00Z,26.0257,-81.7332,2.12,6.6,1111122 
NERRS,ioos:station:NOAA.NERRS:rkblhwq:1,2017-05-07T23:45:00Z,26.0257,-81.7332,2.06,6.2,1111122 
NERRS,ioos:station:NOAA.NERRS:rkblhwq:1,2017-05-08T01:45:00Z,26.0257,-81.7332,2.73,6.2,1111122 
NERRS,ioos:station:NOAA.NERRS:rkblhwq:1,2017-05-08T03:45:00Z,26.0257,-81.7332,3.63,6.0,1111122 
NERRS,ioos:station:NOAA.NERRS:rkblhwq:1,2017-05-08T04:45:00Z,26.0257,-81.7332,3.99,5.9,1111122 
NERRS,ioos:station:NOAA.NERRS:rkblhwq:1,2017-05-08T05:45:00Z,26.0257,-81.7332,4.1,5.3,1111122 
NERRS,ioos:station:NOAA.NERRS:rkblhwq:1,2017-05-08T07:45:00Z,26.0257,-81.7332,3.42,5.2,1111122 
NERRS,ioos:station:NOAA.NERRS:rkblhwq:1,2017-05-08T08:45:00Z,26.0257,-81.7332,3.07,4.9,1111122 
NERRS,ioos:station:NOAA.NERRS:rkblhwq:1,2017-05-08T09:45:00Z,26.0257,-81.7332,2.73,4.8,1111122 
NERRS,ioos:station:NOAA.NERRS:rkblhwq:1,2017-05-08T10:45:00Z,26.0257,-81.7332,2.47,4.7,1111122 
NERRS,ioos:station:NOAA.NERRS:rkblhwq:1,2017-05-08T11:45:00Z,26.0257,-81.7332,2.43,4.1,1111122 
NERRS,ioos:station:NOAA.NERRS:rkblhwq:1,2017-05-08T13:45:00Z,26.0257,-81.7332,3.17,5.1,1111122 
NERRS,ioos:station:NOAA.NERRS:rkblhwq:1,2017-05-08T14:45:00Z,26.0257,-81.7332,3.66,5.6,1111122 
NERRS,ioos:station:NOAA.NERRS:rkblhwq:1,2017-05-08T15:45:00Z,26.0257,-81.7332,4.13,5.8,1111122 
NERRS,ioos:station:NOAA.NERRS:rkblhwq:1,2017-05-08T16:45:00Z,26.0257,-81.7332,4.43,5.7,1111122 
NERRS,ioos:station:NOAA.NERRS:rkblhwq:1,2017-05-08T17:45:00Z,26.0257,-81.7332,4.44,6.3,1111122 
NERRS,ioos:station:NOAA.NERRS:rkblhwq:1,2017-05-08T18:45:00Z,26.0257,-81.7332,4.08,6.5,1111122 
NERRS,ioos:station:NOAA.NERRS:rkblhwq:1,2017-05-08T19:45:00Z,26.0257,-81.7332,3.63,6.5,1111122 
NERRS,ioos:station:NOAA.NERRS:rkblhwq:1,2017-05-08T20:45:00Z,26.0257,-81.7332,3.18,6.7,1111122 
NERRS,ioos:station:NOAA.NERRS:rkblhwq:1,2017-05-08T21:45:00Z,26.0257,-81.7332,2.74,6.5,1111122 
NERRS,ioos:station:NOAA.NERRS:rkblhwq:1,2017-05-08T22:45:00Z,26.0257,-81.7332,2.36,6.4,1111122 
NERRS,ioos:station:NOAA.NERRS:rkblhwq:1,2017-05-09T00:45:00Z,26.0257,-81.7332,2.13,5.7,1111122 
NERRS,ioos:station:NOAA.NERRS:rkblhwq:1,2017-05-09T01:45:00Z,26.0257,-81.7332,2.49,5.7,1111122 
NERRS,ioos:station:NOAA.NERRS:rkblhwq:1,2017-05-09T02:45:00Z,26.0257,-81.7332,2.95,5.7,1111122 
NERRS,ioos:station:NOAA.NERRS:rkblhwq:1,2017-05-09T03:45:00Z,26.0257,-81.7332,3.47,5.8,1111122 
NERRS,ioos:station:NOAA.NERRS:rkblhwq:1,2017-05-09T04:45:00Z,26.0257,-81.7332,3.95,5.4,1111122 
NERRS,ioos:station:NOAA.NERRS:rkblhwq:1,2017-05-09T05:45:00Z,26.0257,-81.7332,4.28,5.2,1111122 
NERRS,ioos:station:NOAA.NERRS:rkblhwq:1,2017-05-09T06:45:00Z,26.0257,-81.7332,4.2,4.8,1111122 
NERRS,ioos:station:NOAA.NERRS:rkblhwq:1,2017-05-09T07:45:00Z,26.0257,-81.7332,3.83,5.1,1111122 
NERRS,ioos:station:NOAA.NERRS:rkblhwq:1,2017-05-09T08:45:00Z,26.0257,-81.7332,3.44,4.7,1111122 
NERRS,ioos:station:NOAA.NERRS:rkblhwq:1,2017-05-09T09:45:00Z,26.0257,-81.7332,3.07,4.5,1111122 
NERRS,ioos:station:NOAA.NERRS:rkblhwq:1,2017-05-09T10:45:00Z,26.0257,-81.7332,2.75,4.3,1111122 
NERRS,ioos:station:NOAA.NERRS:rkblhwq:1,2017-05-09T12:45:00Z,26.0257,-81.7332,2.78,4.6,1111122 
NERRS,ioos:station:NOAA.NERRS:rkblhwq:1,2017-05-09T13:45:00Z,26.0257,-81.7332,3.2,4.8,1111122 
NERRS,ioos:station:NOAA.NERRS:rkblhwq:1,2017-05-09T14:45:00Z,26.0257,-81.7332,3.68,5.3,1111122 
NERRS,ioos:station:NOAA.NERRS:rkblhwq:1,2017-05-09T15:45:00Z,26.0257,-81.7332,4.15,5.6,1111122 
NERRS,ioos:station:NOAA.NERRS:rkblhwq:1,2017-05-09T16:45:00Z,26.0257,-81.7332,4.5,5.4,1111122 
NERRS,ioos:station:NOAA.NERRS:rkblhwq:1,2017-05-09T17:45:00Z,26.0257,-81.7332,4.65,5.0,1111122 
NERRS,ioos:station:NOAA.NERRS:rkblhwq:1,2017-05-09T18:45:00Z,26.0257,-81.7332,4.41,6.1,1111122 
NERRS,ioos:station:NOAA.NERRS:rkblhwq:1,2017-05-09T19:45:00Z,26.0257,-81.7332,3.98,6.3,1111122 
NERRS,ioos:station:NOAA.NERRS:rkblhwq:1,2017-05-09T20:45:00Z,26.0257,-81.7332,3.5,6.3,1111122 
NERRS,ioos:station:NOAA.NERRS:rkblhwq:1,2017-05-09T21:45:00Z,26.0257,-81.7332,3.03,6.2,1111122 
NERRS,ioos:station:NOAA.NERRS:rkblhwq:1,2017-05-09T22:45:00Z,26.0257,-81.7332,2.57,6.3,1111122 
NERRS,ioos:station:NOAA.NERRS:rkblhwq:1,2017-05-09T23:45:00Z,26.0257,-81.7332,2.18,5.9,1111122 
NERRS,ioos:station:NOAA.NERRS:rkblhwq:1,2017-05-10T00:45:00Z,26.0257,-81.7332,1.94,5.4,1111122 
NERRS,ioos:station:NOAA.NERRS:rkblhwq:1,2017-05-10T01:45:00Z,26.0257,-81.7332,2.13,5.3,1111122 
NERRS,ioos:station:NOAA.NERRS:rkblhwq:1,2017-05-10T02:45:00Z,26.0257,-81.7332,2.54,5.3,1111122 
NERRS,ioos:station:NOAA.NERRS:rkblhwq:1,2017-05-10T03:45:00Z,26.0257,-81.7332,3.03,5.4,1111122 
NERRS,ioos:station:NOAA.NERRS:rkblhwq:1,2017-05-10T04:45:00Z,26.0257,-81.7332,3.56,5.0,1111122 
NERRS,ioos:station:NOAA.NERRS:rkblhwq:1,2017-05-10T05:45:00Z,26.0257,-81.7332,4.0,5.0,1111122 
NERRS,ioos:station:NOAA.NERRS:rkblhwq:1,2017-05-10T06:45:00Z,26.0257,-81.7332,4.22,4.6,1111122 
NERRS,ioos:station:NOAA.NERRS:rkblhwq:1,2017-05-10T07:45:00Z,26.0257,-81.7332,3.99,4.7,1111122 
NERRS,ioos:station:NOAA.NERRS:rkblhwq:1,2017-05-10T08:45:00Z,26.0257,-81.7332,3.62,4.4,1111122 
NERRS,ioos:station:NOAA.NERRS:rkblhwq:1,2017-05-10T09:45:00Z,26.0257,-81.7332,3.28,4.2,1111122 
NERRS,ioos:station:NOAA.NERRS:rkblhwq:1,2017-05-10T10:45:00Z,26.0257,-81.7332,2.97,4.0,1111122 
NERRS,ioos:station:NOAA.NERRS:rkblhwq:1,2017-05-10T11:45:00Z,26.0257,-81.7332,2.72,3.8,1111122 
NERRS,ioos:station:NOAA.NERRS:rkblhwq:1,2017-05-10T12:45:00Z,26.0257,-81.7332,2.68,3.7,1111122 
NERRS,ioos:station:NOAA.NERRS:rkblhwq:1,2017-05-10T13:45:00Z,26.0257,-81.7332,2.99,4.6,1111122 
NERRS,ioos:station:NOAA.NERRS:rkblhwq:1,2017-05-10T14:45:00Z,26.0257,-81.7332,3.44,4.8,1111122 
NERRS,ioos:station:NOAA.NERRS:rkblhwq:1,2017-05-10T15:45:00Z,26.0257,-81.7332,3.93,5.1,1111122 
NERRS,ioos:station:NOAA.NERRS:rkblhwq:1,2017-05-10T16:45:00Z,26.0257,-81.7332,4.38,5.3,1111122 
NERRS,ioos:station:NOAA.NERRS:rkblhwq:1,2017-05-10T18:45:00Z,26.0257,-81.7332,4.67,5.9,1111122 
NERRS,ioos:station:NOAA.NERRS:rkblhwq:1,2017-05-10T19:45:00Z,26.0257,-81.7332,4.29,6.2,1111122 
NERRS,ioos:station:NOAA.NERRS:rkblhwq:1,2017-05-10T20:45:00Z,26.0257,-81.7332,3.82,6.3,1111122 
NERRS,ioos:station:NOAA.NERRS:rkblhwq:1,2017-05-10T21:45:00Z,26.0257,-81.7332,3.33,6.2,1111122 
NERRS,ioos:station:NOAA.NERRS:rkblhwq:1,2017-05-10T22:45:00Z,26.0257,-81.7332,2.86,6.1,1111122 
NERRS,ioos:station:NOAA.NERRS:rkblhwq:1,2017-05-10T23:45:00Z,26.0257,-81.7332,2.44,5.7,1111122 
NERRS,ioos:station:NOAA.NERRS:rkblhwq:1,2017-05-11T00:45:00Z,26.0257,-81.7332,2.12,5.4,1111122 
NERRS,ioos:station:NOAA.NERRS:rkblhwq:1,2017-05-11T01:45:00Z,26.0257,-81.7332,2.08,5.0,1111122 
NERRS,ioos:station:NOAA.NERRS:rkblhwq:1,2017-05-11T02:45:00Z,26.0257,-81.7332,2.45,4.9,1111122 
NERRS,ioos:station:NOAA.NERRS:rkblhwq:1,2017-05-11T03:45:00Z,26.0257,-81.7332,2.89,5.0,1111122 
NERRS,ioos:station:NOAA.NERRS:rkblhwq:1,2017-05-11T04:45:00Z,26.0257,-81.7332,3.39,5.2,1111122 
NERRS,ioos:station:NOAA.NERRS:rkblhwq:1,2017-05-11T05:45:00Z,26.0257,-81.7332,3.9,4.9,1111122 
NERRS,ioos:station:NOAA.NERRS:rkblhwq:1,2017-05-11T06:45:00Z,26.0257,-81.7332,4.27,4.8,1111122 
NERRS,ioos:station:NOAA.NERRS:rkblhwq:1,2017-05-11T07:45:00Z,26.0257,-81.7332,4.33,3.9,1111122 
NERRS,ioos:station:NOAA.NERRS:rkblhwq:1,2017-05-11T08:45:00Z,26.0257,-81.7332,4.01,4.4,1111122 
NERRS,ioos:station:NOAA.NERRS:rkblhwq:1,2017-05-11T09:45:00Z,26.0257,-81.7332,3.64,4.0,1111122 
NERRS,ioos:station:NOAA.NERRS:rkblhwq:1,2017-05-11T10:45:00Z,26.0257,-81.7332,3.3,4.0,1111122 
NERRS,ioos:station:NOAA.NERRS:rkblhwq:1,2017-05-11T11:45:00Z,26.0257,-81.7332,3.0,3.6,1111122 
NERRS,ioos:station:NOAA.NERRS:rkblhwq:1,2017-05-11T12:45:00Z,26.0257,-81.7332,2.8,3.2,1111122 
NERRS,ioos:station:NOAA.NERRS:rkblhwq:1,2017-05-11T13:45:00Z,26.0257,-81.7332,2.91,4.1,1111122 
NERRS,ioos:station:NOAA.NERRS:rkblhwq:1,2017-05-11T14:45:00Z,26.0257,-81.7332,3.27,4.7,1111122 
NERRS,ioos:station:NOAA.NERRS:rkblhwq:1,2017-05-11T15:45:00Z,26.0257,-81.7332,3.74,5.0,1111122 
NERRS,ioos:station:NOAA.NERRS:rkblhwq:1,2017-05-11T16:45:00Z,26.0257,-81.7332,4.21,5.2,1111122 
NERRS,ioos:station:NOAA.NERRS:rkblhwq:1,2017-05-11T17:45:00Z,26.0257,-81.7332,4.54,5.1,1111122 
NERRS,ioos:station:NOAA.NERRS:rkblhwq:1,2017-05-11T18:45:00Z,26.0257,-81.7332,4.62,5.2,1111122 
NERRS,ioos:station:NOAA.NERRS:rkblhwq:1,2017-05-12T00:45:00Z,26.0257,-81.7332,2.12,5.1,1111122 
NERRS,ioos:station:NOAA.NERRS:rkblhwq:1,2017-05-12T01:45:00Z,26.0257,-81.7332,1.87,4.5,1111122 
NERRS,ioos:station:NOAA.NERRS:rkblhwq:1,2017-05-12T02:45:00Z,26.0257,-81.7332,2.0,4.8,1111122 
NERRS,ioos:station:NOAA.NERRS:rkblhwq:1,2017-05-12T03:45:00Z,26.0257,-81.7332,2.34,4.7,1111122 
NERRS,ioos:station:NOAA.NERRS:rkblhwq:1,2017-05-12T04:45:00Z,26.0257,-81.7332,2.74,4.6,1111122 
NERRS,ioos:station:NOAA.NERRS:rkblhwq:1,2017-05-12T05:45:00Z,26.0257,-81.7332,3.25,4.6,1111122 
NERRS,ioos:station:NOAA.NERRS:rkblhwq:1,2017-05-12T06:45:00Z,26.0257,-81.7332,3.73,4.5,1111122 
NERRS,ioos:station:NOAA.NERRS:rkblhwq:1,2017-05-12T07:45:00Z,26.0257,-81.7332,4.04,3.8,1111122 
NERRS,ioos:station:NOAA.NERRS:rkblhwq:1,2017-05-12T08:45:00Z,26.0257,-81.7332,4.03,3.8,1111122 
NERRS,ioos:station:NOAA.NERRS:rkblhwq:1,2017-05-12T09:45:00Z,26.0257,-81.7332,3.73,4.0,1111122 
NERRS,ioos:station:NOAA.NERRS:rkblhwq:1,2017-05-12T10:45:00Z,26.0257,-81.7332,3.45,3.9,1111122 
NERRS,ioos:station:NOAA.NERRS:rkblhwq:1,2017-05-12T11:45:00Z,26.0257,-81.7332,3.16,3.6,1111122 